Time,TemperatureF,DewpointF,PressureIn,WindDirection,WindDirectionDegrees,WindSpeedMPH,WindSpeedGustMPH,Humidity,HourlyPrecipIn,Conditions,Clouds,dailyrainin,SoftwareType,DateUTC
2013-04-22 00:02:00,40.0,27.0,30.51,ESE,116,0.0,1.0,59,0.00,,,0.00,,2013-04-22 05:02:00,
2013-04-22 00:12:00,40.0,27.0,30.51,East,90,0.0,0.0,60,0.00,,,0.00,,2013-04-22 05:12:00,
2013-04-22 00:22:00,40.0,27.0,30.51,East,90,0.0,0.0,60,0.00,,,0.00,,2013-04-22 05:22:00,
2013-04-22 00:32:00,40.0,27.0,30.50,SE,135,0.0,0.0,60,0.00,,,0.00,,2013-04-22 05:32:00,
2013-04-22 00:42:00,40.0,27.0,30.50,SE,135,0.0,0.0,60,0.00,,,0.00,,2013-04-22 05:42:00,
2013-04-22 00:52:00,39.0,27.0,30.50,SE,135,0.0,0.0,61,0.00,,,0.00,,2013-04-22 05:52:00,
2013-04-22 01:02:00,39.0,27.0,30.50,ESE,112,0.0,0.0,62,0.00,,,0.00,,2013-04-22 06:02:00,
2013-04-22 01:12:00,39.0,27.0,30.50,ESE,112,0.0,0.0,62,0.00,,,0.00,,2013-04-22 06:12:00,
2013-04-22 01:21:00,38.0,26.0,30.50,ESE,112,0.0,0.0,62,0.00,,,0.00,,2013-04-22 06:21:00,
2013-04-22 01:32:00,38.0,27.0,30.50,ESE,112,0.0,0.0,63,0.00,,,0.00,,2013-04-22 06:32:00,
2013-04-22 01:42:00,38.0,27.0,30.50,ESE,112,0.0,0.0,63,0.00,,,0.00,,2013-04-22 06:42:00,
2013-04-22 01:52:00,38.0,27.0,30.49,ESE,112,0.0,0.0,64,0.00,,,0.00,,2013-04-22 06:52:00,
2013-04-22 02:01:00,38.0,27.0,30.48,East,90,0.0,0.0,65,0.00,,,0.00,,2013-04-22 07:01:00,
2013-04-22 02:12:00,38.0,27.0,30.48,East,90,0.0,0.0,65,0.00,,,0.00,,2013-04-22 07:12:00,
2013-04-22 02:21:00,38.0,28.0,30.48,SE,135,0.0,0.0,66,0.00,,,0.00,,2013-04-22 07:21:00,
2013-04-22 02:32:00,38.0,28.0,30.48,SE,135,0.0,0.0,66,0.00,,,0.00,,2013-04-22 07:32:00,
2013-04-22 02:42:00,38.0,28.0,30.48,SE,135,0.0,0.0,66,0.00,,,0.00,,2013-04-22 07:42:00,
2013-04-22 02:52:00,38.0,28.0,30.48,SE,135,0.0,0.0,67,0.00,,,0.00,,2013-04-22 07:52:00,
2013-04-22 03:01:00,38.0,28.0,30.48,East,90,0.0,1.0,67,0.00,,,0.00,,2013-04-22 08:01:00,
2013-04-22 03:11:00,38.0,28.0,30.48,East,90,0.0,1.0,67,0.00,,,0.00,,2013-04-22 08:11:00,
2013-04-22 03:22:00,38.0,28.0,30.47,ESE,113,0.0,5.0,68,0.00,,,0.00,,2013-04-22 08:22:00,
2013-04-22 03:32:00,38.0,28.0,30.47,East,90,0.0,5.0,68,0.00,,,0.00,,2013-04-22 08:32:00,
2013-04-22 03:42:00,38.0,28.0,30.47,East,90,0.0,5.0,68,0.00,,,0.00,,2013-04-22 08:42:00,
2013-04-22 03:53:00,37.0,28.0,30.47,NE,47,0.0,0.0,69,0.00,,,0.00,,2013-04-22 08:53:00,
2013-04-22 04:01:00,37.0,28.0,30.47,SE,135,1.0,2.0,70,0.00,,,0.00,,2013-04-22 09:01:00,
2013-04-22 04:11:00,37.0,28.0,30.47,SE,135,1.0,2.0,70,0.00,,,0.00,,2013-04-22 09:11:00,
2013-04-22 04:21:00,36.0,27.0,30.47,ESE,112,0.0,0.0,70,0.00,,,0.00,,2013-04-22 09:21:00,
2013-04-22 04:33:00,35.0,27.0,30.47,ESE,112,0.0,0.0,71,0.00,,,0.00,,2013-04-22 09:33:00,
2013-04-22 04:42:00,35.0,27.0,30.47,ESE,112,0.0,0.0,71,0.00,,,0.00,,2013-04-22 09:42:00,
2013-04-22 04:52:00,35.0,27.0,30.47,SE,135,0.0,0.0,73,0.00,,,0.00,,2013-04-22 09:52:00,
2013-04-22 05:03:00,35.0,27.0,30.47,East,90,0.0,0.0,73,0.00,,,0.00,,2013-04-22 10:03:00,
2013-04-22 05:12:00,35.0,27.0,30.47,East,90,0.0,0.0,73,0.00,,,0.00,,2013-04-22 10:12:00,
2013-04-22 05:22:00,35.0,28.0,30.47,ESE,112,0.0,0.0,75,0.00,,,0.00,,2013-04-22 10:22:00,
2013-04-22 05:32:00,35.0,28.0,30.46,ESE,112,0.0,0.0,75,0.00,,,0.00,,2013-04-22 10:32:00,
2013-04-22 05:42:00,35.0,28.0,30.46,ESE,112,0.0,0.0,75,0.00,,,0.00,,2013-04-22 10:42:00,
2013-04-22 05:52:00,35.0,29.0,30.47,SE,135,0.0,0.0,77,0.00,,,0.00,,2013-04-22 10:52:00,
2013-04-22 06:02:00,35.0,29.0,30.47,East,90,0.0,0.0,77,0.00,,,0.00,,2013-04-22 11:02:00,
2013-04-22 06:12:00,35.0,29.0,30.47,East,90,0.0,0.0,78,0.00,,,0.00,,2013-04-22 11:12:00,
2013-04-22 06:22:00,35.0,29.0,30.47,East,90,0.0,0.0,78,0.00,,,0.00,,2013-04-22 11:22:00,
2013-04-22 06:32:00,35.0,29.0,30.47,East,90,0.0,0.0,79,0.00,,,0.00,,2013-04-22 11:32:00,
2013-04-22 06:42:00,35.0,29.0,30.47,East,90,0.0,0.0,79,0.00,,,0.00,,2013-04-22 11:42:00,
2013-04-22 06:52:00,36.0,30.0,30.46,ENE,73,0.0,0.0,80,0.00,,,0.00,,2013-04-22 11:52:00,
2013-04-22 07:01:00,37.0,31.0,30.47,East,90,0.0,0.0,80,0.00,,,0.00,,2013-04-22 12:01:00,
2013-04-22 07:12:00,39.0,32.0,30.47,East,90,1.0,5.0,77,0.00,,,0.00,,2013-04-22 12:12:00,
2013-04-22 07:21:00,39.0,32.0,30.47,East,90,1.0,5.0,77,0.00,,,0.00,,2013-04-22 12:21:00,
2013-04-22 07:31:00,39.0,32.0,30.46,ESE,117,2.0,5.0,75,0.00,,,0.00,,2013-04-22 12:31:00,
2013-04-22 07:42:00,39.0,32.0,30.46,ESE,117,2.0,5.0,75,0.00,,,0.00,,2013-04-22 12:42:00,
2013-04-22 07:52:00,41.0,33.0,30.46,South,180,0.0,1.0,72,0.00,,,0.00,,2013-04-22 12:52:00,
2013-04-22 08:01:00,42.0,33.0,30.46,East,90,0.0,0.0,71,0.00,,,0.00,,2013-04-22 13:01:00,
2013-04-22 08:11:00,42.0,33.0,30.46,East,90,0.0,0.0,71,0.00,,,0.00,,2013-04-22 13:11:00,
2013-04-22 08:22:00,44.0,34.0,30.45,NE,45,0.0,7.0,67,0.00,,,0.00,,2013-04-22 13:22:00,
2013-04-22 08:31:00,45.0,34.0,30.46,East,97,0.0,0.0,65,0.00,,,0.00,,2013-04-22 13:31:00,
2013-04-22 08:41:00,45.0,34.0,30.46,East,97,0.0,0.0,65,0.00,,,0.00,,2013-04-22 13:41:00,
2013-04-22 08:53:00,47.0,35.0,30.45,ESE,112,1.0,3.0,63,0.00,,,0.00,,2013-04-22 13:53:00,
2013-04-22 09:02:00,49.0,35.0,30.45,ESE,123,0.0,3.0,59,0.00,,,0.00,,2013-04-22 14:02:00,
2013-04-22 09:11:00,52.0,36.0,30.45,South,180,3.0,7.0,54,0.00,,,0.00,,2013-04-22 14:11:00,
2013-04-22 09:21:00,52.0,36.0,30.45,South,180,3.0,7.0,54,0.00,,,0.00,,2013-04-22 14:21:00,
2013-04-22 09:33:00,53.0,35.0,30.45,SE,135,2.0,7.0,50,0.00,,,0.00,,2013-04-22 14:33:00,
2013-04-22 09:42:00,53.0,35.0,30.45,SE,135,2.0,7.0,50,0.00,,,0.00,,2013-04-22 14:42:00,
2013-04-22 09:52:00,55.0,34.0,30.45,SSE,158,0.0,7.0,45,0.00,,,0.00,,2013-04-22 14:52:00,
2013-04-22 10:01:00,56.0,34.0,30.44,South,180,6.0,7.0,43,0.00,,,0.00,,2013-04-22 15:01:00,
2013-04-22 10:11:00,56.0,34.0,30.44,South,180,6.0,7.0,43,0.00,,,0.00,,2013-04-22 15:11:00,
2013-04-22 10:22:00,57.0,34.0,30.44,South,180,2.0,5.0,42,0.00,,,0.00,,2013-04-22 15:22:00,
2013-04-22 10:33:00,58.0,34.0,30.44,South,180,3.0,3.0,40,0.00,,,0.00,,2013-04-22 15:33:00,
2013-04-22 10:43:00,58.0,34.0,30.44,South,180,3.0,3.0,40,0.00,,,0.00,,2013-04-22 15:43:00,
2013-04-22 10:53:00,59.0,33.0,30.44,SSW,202,6.0,7.0,37,0.00,,,0.00,,2013-04-22 15:53:00,
2013-04-22 11:02:00,60.0,33.0,30.44,SE,135,9.0,10.0,36,0.00,,,0.00,,2013-04-22 16:02:00,
2013-04-22 11:12:00,60.0,33.0,30.44,SE,135,9.0,10.0,36,0.00,,,0.00,,2013-04-22 16:12:00,
2013-04-22 11:23:00,60.0,32.0,30.43,South,180,6.0,7.0,35,0.00,,,0.00,,2013-04-22 16:23:00,
2013-04-22 11:33:00,60.0,32.0,30.43,SW,224,3.0,7.0,35,0.00,,,0.00,,2013-04-22 16:33:00,
2013-04-22 11:42:00,60.0,32.0,30.43,SW,224,3.0,7.0,35,0.00,,,0.00,,2013-04-22 16:42:00,
2013-04-22 11:52:00,62.0,34.0,30.42,SE,135,0.0,0.0,35,0.00,,,0.00,,2013-04-22 16:52:00,
2013-04-22 12:02:00,62.0,34.0,30.42,South,180,7.0,7.0,35,0.00,,,0.00,,2013-04-22 17:02:00,
2013-04-22 12:12:00,62.0,34.0,30.42,South,180,7.0,7.0,35,0.00,,,0.00,,2013-04-22 17:12:00,
2013-04-22 12:22:00,64.0,33.0,30.41,SSE,151,3.0,3.0,31,0.00,,,0.00,,2013-04-22 17:22:00,
2013-04-22 12:32:00,65.0,31.0,30.41,ESE,112,4.0,9.0,28,0.00,,,0.00,,2013-04-22 17:32:00,
2013-04-22 12:42:00,65.0,31.0,30.41,ESE,112,4.0,9.0,28,0.00,,,0.00,,2013-04-22 17:42:00,
2013-04-22 12:52:00,65.0,31.0,30.41,SSE,158,2.0,6.0,28,0.00,,,0.00,,2013-04-22 17:52:00,
2013-04-22 13:01:00,66.0,32.0,30.40,South,180,1.0,3.0,28,0.00,,,0.00,,2013-04-22 18:01:00,
2013-04-22 13:12:00,66.0,32.0,30.40,South,180,1.0,3.0,28,0.00,,,0.00,,2013-04-22 18:12:00,
2013-04-22 13:21:00,69.0,31.0,30.38,ENE,68,2.0,5.0,24,0.00,,,0.00,,2013-04-22 18:21:00,
2013-04-22 13:32:00,69.0,30.0,30.38,ENE,60,1.0,2.0,23,0.00,,,0.00,,2013-04-22 18:32:00,
2013-04-22 13:42:00,69.0,30.0,30.38,ENE,60,1.0,2.0,23,0.00,,,0.00,,2013-04-22 18:42:00,
2013-04-22 13:52:00,72.0,27.0,30.38,SE,135,6.0,7.0,19,0.00,,,0.00,,2013-04-22 18:52:00,
2013-04-22 14:01:00,74.0,32.0,30.37,NE,51,0.0,7.0,21,0.00,,,0.00,,2013-04-22 19:01:00,
2013-04-22 14:12:00,74.0,32.0,30.37,NE,51,0.0,7.0,21,0.00,,,0.00,,2013-04-22 19:12:00,
2013-04-22 14:21:00,74.0,29.0,30.38,South,175,6.0,7.0,19,0.00,,,0.00,,2013-04-22 19:21:00,
2013-04-22 14:32:00,75.0,30.0,30.36,SSE,165,3.0,6.0,19,0.00,,,0.00,,2013-04-22 19:32:00,
2013-04-22 14:42:00,75.0,30.0,30.36,SSE,165,3.0,6.0,19,0.00,,,0.00,,2013-04-22 19:42:00,
2013-04-22 14:53:00,75.0,30.0,30.35,ESE,113,5.0,6.0,19,0.00,,,0.00,,2013-04-22 19:53:00,
2013-04-22 15:02:00,75.0,30.0,30.35,SE,129,0.0,3.0,19,0.00,,,0.00,,2013-04-22 20:02:00,
2013-04-22 15:11:00,75.0,30.0,30.35,SE,129,0.0,3.0,19,0.00,,,0.00,,2013-04-22 20:11:00,
2013-04-22 15:22:00,76.0,31.0,30.33,SE,135,1.0,3.0,19,0.00,,,0.00,,2013-04-22 20:22:00,
2013-04-22 15:32:00,75.0,30.0,30.33,ENE,68,2.0,3.0,19,0.00,,,0.00,,2013-04-22 20:32:00,
2013-04-22 15:42:00,75.0,30.0,30.33,ENE,68,2.0,3.0,19,0.00,,,0.00,,2013-04-22 20:42:00,
2013-04-22 15:52:00,76.0,31.0,30.31,WSW,248,0.0,6.0,19,0.00,,,0.00,,2013-04-22 20:52:00,
2013-04-22 16:02:00,76.0,31.0,30.31,WSW,248,3.0,3.0,19,0.00,,,0.00,,2013-04-22 21:02:00,
2013-04-22 16:11:00,76.0,31.0,30.30,WSW,248,3.0,8.0,19,0.00,,,0.00,,2013-04-22 21:11:00,
2013-04-22 16:21:00,76.0,31.0,30.30,WSW,248,3.0,8.0,19,0.00,,,0.00,,2013-04-22 21:21:00,
2013-04-22 16:32:00,75.0,30.0,30.29,WSW,248,1.0,7.0,19,0.00,,,0.00,,2013-04-22 21:32:00,
2013-04-22 16:42:00,75.0,30.0,30.29,WSW,248,1.0,7.0,19,0.00,,,0.00,,2013-04-22 21:42:00,
2013-04-22 16:53:00,74.0,29.0,30.28,ENE,68,0.0,6.0,19,0.00,,,0.00,,2013-04-22 21:53:00,
2013-04-22 17:02:00,75.0,30.0,30.27,WSW,248,0.0,6.0,19,0.00,,,0.00,,2013-04-22 22:02:00,
2013-04-22 17:12:00,75.0,30.0,30.27,WSW,248,0.0,6.0,19,0.00,,,0.00,,2013-04-22 22:12:00,
2013-04-22 17:22:00,77.0,32.0,30.27,East,90,4.0,8.0,19,0.00,,,0.00,,2013-04-22 22:22:00,
2013-04-22 17:33:00,75.0,30.0,30.27,East,97,7.0,12.0,19,0.00,,,0.00,,2013-04-22 22:33:00,
2013-04-22 17:42:00,75.0,30.0,30.27,East,97,7.0,12.0,19,0.00,,,0.00,,2013-04-22 22:42:00,
2013-04-22 17:52:00,76.0,31.0,30.26,WSW,248,2.0,8.0,19,0.00,,,0.00,,2013-04-22 22:52:00,
2013-04-22 18:02:00,76.0,31.0,30.27,WSW,248,2.0,6.0,19,0.00,,,0.00,,2013-04-22 23:02:00,
2013-04-22 18:11:00,73.0,28.0,30.26,WSW,248,0.0,6.0,19,0.00,,,0.00,,2013-04-22 23:11:00,
2013-04-22 18:21:00,73.0,28.0,30.26,WSW,248,0.0,6.0,19,0.00,,,0.00,,2013-04-22 23:21:00,
2013-04-22 18:32:00,71.0,27.0,30.26,WSW,248,0.0,2.0,19,0.00,,,0.00,,2013-04-22 23:32:00,
2013-04-22 18:42:00,71.0,27.0,30.26,WSW,248,0.0,2.0,19,0.00,,,0.00,,2013-04-22 23:42:00,
2013-04-22 18:52:00,67.0,28.0,30.24,ESE,112,2.0,5.0,23,0.00,,,0.00,,2013-04-22 23:52:00,
2013-04-22 19:02:00,65.0,29.0,30.25,SSE,158,1.0,1.0,26,0.00,,,0.00,,2013-04-23 00:02:00,
2013-04-22 19:12:00,65.0,29.0,30.25,SSE,158,1.0,1.0,26,0.00,,,0.00,,2013-04-23 00:12:00,
2013-04-22 19:21:00,62.0,30.0,30.25,SE,135,0.0,6.0,30,0.00,,,0.00,,2013-04-23 00:21:00,
2013-04-22 19:31:00,60.0,30.0,30.25,ESE,112,0.0,2.0,32,0.00,,,0.00,,2013-04-23 00:31:00,
2013-04-22 19:42:00,60.0,30.0,30.25,ESE,112,0.0,2.0,32,0.00,,,0.00,,2013-04-23 00:42:00,
2013-04-22 19:52:00,58.0,31.0,30.26,SE,135,0.0,0.0,36,0.00,,,0.00,,2013-04-23 00:52:00,
2013-04-22 20:01:00,57.0,32.0,30.26,ENE,68,0.0,0.0,38,0.00,,,0.00,,2013-04-23 01:01:00,
2013-04-22 20:11:00,57.0,32.0,30.26,ENE,68,0.0,0.0,38,0.00,,,0.00,,2013-04-23 01:11:00,
2013-04-22 20:21:00,55.0,31.0,30.25,ENE,68,0.0,0.0,40,0.00,,,0.00,,2013-04-23 01:21:00,
2013-04-22 20:32:00,54.0,31.0,30.25,ENE,68,0.0,0.0,42,0.00,,,0.00,,2013-04-23 01:32:00,
2013-04-22 20:42:00,54.0,31.0,30.25,ENE,68,0.0,0.0,42,0.00,,,0.00,,2013-04-23 01:42:00,
2013-04-22 20:52:00,54.0,33.0,30.26,ENE,68,0.0,0.0,44,0.00,,,0.00,,2013-04-23 01:52:00,
2013-04-22 21:01:00,54.0,33.0,30.26,ENE,68,0.0,0.0,45,0.00,,,0.00,,2013-04-23 02:01:00,
2013-04-22 21:12:00,54.0,33.0,30.26,ENE,68,0.0,0.0,45,0.00,,,0.00,,2013-04-23 02:12:00,
2013-04-22 21:21:00,54.0,33.0,30.26,East,90,0.0,0.0,45,0.00,,,0.00,,2013-04-23 02:21:00,
2013-04-22 21:32:00,54.0,33.0,30.26,East,90,0.0,0.0,45,0.00,,,0.00,,2013-04-23 02:32:00,
2013-04-22 21:42:00,54.0,33.0,30.26,East,90,0.0,0.0,45,0.00,,,0.00,,2013-04-23 02:42:00,
2013-04-22 21:52:00,53.0,33.0,30.26,East,90,0.0,0.0,46,0.00,,,0.00,,2013-04-23 02:52:00,
2013-04-22 22:01:00,53.0,33.0,30.26,East,90,0.0,0.0,46,0.00,,,0.00,,2013-04-23 03:01:00,
2013-04-22 22:11:00,53.0,33.0,30.26,East,90,0.0,0.0,46,0.00,,,0.00,,2013-04-23 03:11:00,
2013-04-22 22:21:00,53.0,33.0,30.26,East,90,0.0,0.0,46,0.00,,,0.00,,2013-04-23 03:21:00,
2013-04-22 22:33:00,53.0,33.0,30.26,East,90,0.0,0.0,47,0.00,,,0.00,,2013-04-23 03:33:00,
2013-04-22 22:43:00,53.0,33.0,30.26,East,90,0.0,0.0,47,0.00,,,0.00,,2013-04-23 03:43:00,
2013-04-22 22:53:00,52.0,33.0,30.25,East,90,0.0,0.0,48,0.00,,,0.00,,2013-04-23 03:53:00,
2013-04-22 23:03:00,52.0,33.0,30.25,ESE,122,0.0,0.0,48,0.00,,,0.00,,2013-04-23 04:03:00,
2013-04-22 23:12:00,52.0,33.0,30.25,ESE,122,0.0,0.0,48,0.00,,,0.00,,2013-04-23 04:12:00,
2013-04-22 23:23:00,52.0,33.0,30.24,ESE,112,0.0,0.0,48,0.00,,,0.00,,2013-04-23 04:23:00,
2013-04-22 23:33:00,52.0,33.0,30.24,East,90,0.0,0.0,49,0.00,,,0.00,,2013-04-23 04:33:00,
2013-04-22 23:43:00,52.0,33.0,30.24,East,90,0.0,0.0,49,0.00,,,0.00,,2013-04-23 04:43:00,
2013-04-22 23:53:00,52.0,34.0,30.24,East,90,0.0,0.0,50,0.00,,,0.00,,2013-04-23 04:53:00,